Location: Vancouver
(49.2500°N, 123.1330°W)
Time: 13:46:36
(UTC-07:00)

Vanguard 2 Rocket - Visible Passes

Search period start: 24 April 2018 00:00
Search period end: 04 May 2018 00:00
Orbit: 553 x 3328 km, 32.9° (Epoch: 24 April)

Date Brightness Start Highest point End Pass type
(mag) Time Alt. Az. Time Alt. Az. Time Alt. Az.
24 Apr 10.3 02:31:47 12° SSE 02:38:01 16° SE 02:47:00 10° ESE visible
24 Apr 10.1 04:37:34 11° SSW 04:51:23 36° SSE 05:08:22 10° E visible
25 Apr 10.0 03:41:10 16° S 03:50:49 29° SE 04:06:03 10° E visible
26 Apr 10.0 02:44:45 17° SSE 02:50:44 22° SE 03:02:55 10° E visible
26 Apr 10.0 04:50:32 11° SW 05:04:36 41° SSE 05:22:23 10° E visible
27 Apr 10.2 01:48:18 13° SE 01:51:07 14° SE 01:58:07 10° ESE visible
27 Apr 9.8 03:54:05 18° SSW 04:03:52 35° SSE 04:20:20 10° E visible
28 Apr 9.7 02:57:37 21° S 03:03:37 27° SE 03:17:41 10° E visible
28 Apr 9.9 05:03:40 10° SW 05:17:57 44° SSE 05:36:12 10° ESE visible
29 Apr 9.9 02:01:08 18° SSE 02:03:52 20° SE 02:14:15 10° E visible
29 Apr 9.7 04:06:55 18° SW 04:17:06 39° SSE 04:34:17 10° E visible
30 Apr 10.1 01:04:39 12° SE 01:04:39 12° SE 01:08:40 10° ESE visible
30 Apr 9.5 03:10:25 23° S 03:16:43 33° SSE 03:31:55 10° E visible
30 Apr 9.9 05:17:20 10° WSW 05:31:26 45° S 05:49:49 10° ESE visible
01 May 9.5 02:13:56 23° SSE 02:16:49 25° SE 02:29:05 10° E visible
01 May 9.6 04:19:42 16° SW 04:30:31 42° SSE 04:48:01 10° ESE visible
02 May 9.8 01:17:26 17° SE 01:17:26 17° SE 01:25:27 10° ESE visible
02 May 9.3 03:23:13 24° SSW 03:30:00 37° SSE 03:45:50 10° ESE visible
03 May 9.2 02:26:43 27° S 02:29:59 30° SSE 02:43:19 10° E visible
03 May 9.6 04:32:29 12° WSW 04:44:03 43° S 05:01:33 10° ESE visible
